Location: Poughquag
(41.6090°N, 73.6820°W)
Time: 05:05:11
(UTC-04:00)

ACS3 Solar Sail - Pass Details

Date: 24 June 2024
Orbit: 993 x 1022 km, 97.4° (Epoch: 23 July)

Event Time Altitude Azimuth Distance (km) Brightness Sun altitude
Exits shadow 21:55:54 16° 146° (SSE) 2,325 6.1 -12.6°
Maximum altitude 22:00:46 57° 73° (ENE) 1,158 5.1 -13.2°
Drops below altitude 10° 22:06:50 10° 356° (N) 2,766 8.0 -14.0°
Sets 22:09:21 0° 353° (N) 3,719 8.9 -14.3°
